Location: Janeiro
(34.9957°N, 76.7652°W)
Time: 07:53:18
(UTC+00:00)

BREEZE-M DEB (TANK) - Pass Details

Date: 14 December 2019
Orbit: 436 x 13847 km, 45.9° (Epoch: 24 January)

Event Time Altitude Azimuth Distance (km) Brightness Sun altitude
Rises 23:51:35 0° 305° (NW) 2,968 6.7 -22.9°
Reaches altitude 10° 23:54:21 10° 320° (NW) 1,673 5.1 -23.4°
Enters shadow 23:55:22 16° 334° (NNW) 1,262 4.3 -23.6°
